Wind_Speed
14 15 15 16 18 17 17 16 15 15 15 15 15 15 15 16 16 16 17 18 18 17 17 16 16 16 16 15 15 14 14 14 13 14 14 13 13 13 13 12 13 13 13 14 14 13 14 15 15 14 14 14 14 15 16 18 20 21 22 24 26 25 20 15 13 17 18 19 20 18 18 17 17 18 18 18 17 19 22 21 22 23 23 23 22 22 22 24
14 14 14 15 16 16 15 14 14 14 14 15 14 14 14 14 14 14 15 17 18 18 17 17 16 16 16 16 16 15 16 15 15 16 14 13 14 14 13 13 13 13 14 14 13 13 14 14 14 15 14 13 13 13 14 16 20 23 23 24 27 25 19 15 14 18 18 19 20 18 17 17 18 19 17 17 16 18 20 20 20 22 23 23 22 22 22 23
13 14 14 15 15 14 13 12 12 12 12 13 13 13 13 13 13 12 12 14 16 17 17 17 17 17 16 16 16 16 16 16 18 16 12 15 16 14 13 13 13 14 14 14 14 14 14 14 15 16 15 14 13 13 14 15 19 23 24 26 26 21 20 19 16 18 19 20 20 18 18 16 15 16 15 15 14 16 18 19 19 20 21 22 23 23 23 24
14 14 14 15 15 14 12 11 11 11 11 11 11 12 12 13 12 12 11 11 12 13 14 15 16 17 17 17 16 16 17 17 19 16 13 16 15 14 14 13 14 14 15 15 15 14 14 15 16 16 16 17 16 15 16 16 17 21 25 28 25 19 19 18 16 19 21 19 18 17 17 16 15 15 15 15 15 16 17 19 19 20 20 20 22 23 25 27
14 14 15 15 15 14 13 11 11 11 10 10 10 11 11 12 12 13 12 11 11 11 11 12 13 15 16 17 17 17 17 16 17 16 16 17 15 15 15 14 15 15 15 15 15 15 15 14 15 16 17 18 18 18 18 17 17 20 23 25 24 21 20 17 16 20 22 19 16 16 15 15 16 15 16 16 16 16 15 18 19 19 19 18 19 20 24 28
15 15 15 15 15 15 13 12 11 12 12 11 10 10 10 11 12 12 12 11 12 11 11 11 12 13 14 16 16 17 18 15 15 15 16 16 16 16 15 16 16 16 16 15 16 16 15 15 15 15 16 17 19 20 18 16 18 21 21 20 21 22 22 20 19 21 21 20 18 17 16 16 17 17 17 17 16 15 15 16 18 18 19 18 17 18 21 25
15 15 16 15 15 15 14 12 11 12 12 12 12 11 11 11 11 11 10 11 11 11 11 11 11 12 13 14 14 16 18 17 16 16 15 14 14 15 16 17 17 16 16 16 16 16 16 16 15 14 16 17 19 20 19 17 18 21 21 20 19 18 19 21 23 23 21 20 20 20 19 17 17 18 18 17 16 15 17 17 16 16 18 18 19 21 21 22
16 15 15 15 15 15 14 13 12 12 12 13 13 12 12 12 11 11 10 10 10 10 10 9 10 11 12 13 12 15 16 16 17 19 18 16 15 14 14 15 16 16 16 16 16 16 17 17 16 15 16 17 17 18 18 17 19 22 21 19 19 17 18 21 24 25 23 22 23 22 21 18 19 21 19 19 18 16 17 17 16 15 15 16 17 20 22 22
16 15 15 14 14 14 14 13 12 12 12 13 13 13 13 12 12 11 11 10 9 9 9 9 9 10 11 12 12 14 14 14 16 18 18 18 17 16 15 14 13 14 15 15 16 16 18 18 17 16 16 15 16 16 16 17 18 22 22 21 20 18 18 22 23 24 23 23 24 22 22 21 22 22 20 21 21 18 19 18 16 15 14 14 15 17 19 21
17 15 15 14 14 14 14 13 12 11 12 13 13 13 13 13 12 12 12 11 10 9 9 9 8 9 10 11 12 13 13 13 15 15 16 17 17 17 17 16 14 13 13 13 14 14 16 17 17 18 18 17 17 18 19 19 17 18 22 22 21 20 20 22 23 23 22 22 23 22 21 21 22 22 21 22 21 21 22 21 19 18 16 16 16 17 17 19
16 15 14 14 14 15 14 13 11 11 11 12 12 12 13 13 13 12 12 12 11 10 10 10 9 9 10 11 13 13 12 12 13 14 15 16 16 16 17 17 17 16 15 15 14 13 14 17 19 20 20 19 19 19 20 22 21 20 23 24 23 23 23 25 26 24 21 21 21 22 21 21 23 22 22 22 22 22 23 22 22 22 21 20 19 19 19 19
14 13 14 14 14 15 14 13 12 11 11 12 12 12 12 13 13 13 13 12 12 12 11 11 11 10 11 12 12 12 11 11 12 13 14 15 15 16 16 17 17 18 18 18 17 16 16 17 18 19 19 19 19 17 19 23 25 25 26 25 26 26 26 25 25 24 21 21 20 19 21 22 23 24 25 25 24 24 23 23 25 25 24 23 22 22 22 21
13 13 13 14 14 15 14 13 13 12 12 12 12 12 12 13 13 13 13 13 13 13 12 12 12 12 13 12 11 11 12 12 12 13 13 14 15 15 16 16 16 17 17 18 18 18 17 16 15 17 19 18 17 17 18 19 21 24 24 25 27 27 29 27 24 24 21 20 18 16 19 17 16 21 26 27 27 27 27 27 28 27 26 25 24 23 23 23
12 12 12 14 14 15 15 15 14 14 13 13 12 12 11 12 12 12 13 13 13 13 13 13 13 13 13 12 11 12 12 12 12 12 13 14 14 15 15 15 15 15 16 17 17 16 16 15 15 17 19 19 19 20 18 17 16 16 16 21 25 25 28 26 24 25 23 22 20 17 20 17 15 18 21 22 23 24 27 31 33 31 29 27 26 24 24 25
11 12 13 15 16 16 17 17 16 15 14 13 12 11 10 10 10 10 11 11 12 12 13 13 13 13 13 12 13 13 13 13 12 12 13 13 14 14 14 15 15 14 15 15 15 15 15 15 15 16 18 18 19 19 17 16 15 12 11 13 17 21 22 18 17 20 23 24 22 20 20 19 22 22 17 18 20 23 27 33 33 31 31 31 29 28 27 26
12 13 14 16 17 17 17 18 18 16 15 13 11 10 9 8 8 8 8 9 10 11 12 12 13 13 13 13 14 14 13 13 13 13 13 13 13 13 13 14 14 14 14 14 14 16 16 16 17 18 18 18 17 17 15 13 11 12 13 12 12 14 14 11 14 16 17 19 20 21 17 13 20 22 18 18 22 26 31 33 31 27 28 30 31 31 29 27
14 15 15 16 16 16 16 17 17 16 15 13 12 10 9 8 8 7 7 7 8 10 11 11 12 12 12 12 13 14 14 13 13 13 13 13 13 13 13 14 14 14 14 14 14 16 16 17 18 19 19 19 17 15 14 12 11 13 14 15 15 12 10 11 15 16 15 16 18 20 18 16 18 16 17 21 26 29 31 31 30 27 26 27 29 30 30 29
15 15 16 16 16 15 14 14 14 15 15 14 12 11 10 9 9 8 8 7 8 9 10 11 12 11 11 12 12 13 13 13 13 13 13 13 13 13 13 13 14 14 13 13 14 15 15 16 17 18 17 18 16 16 16 13 9 10 12 14 16 16 15 14 14 15 16 17 17 18 19 23 23 18 17 22 26 29 29 29 30 30 29 28 28 30 30 30
15 16 17 17 16 15 14 12 11 11 13 13 13 12 11 10 10 9 9 8 8 9 9 10 11 11 10 9 11 12 13 13 13 13 13 13 13 12 12 12 12 12 13 13 13 14 14 15 16 17 17 17 17 18 21 17 10 8 9 9 10 13 16 16 16 13 12 13 16 18 18 22 27 25 23 25 25 25 26 27 28 29 30 30 30 30 30 31
16 17 18 17 16 15 13 11 8 7 9 10 11 11 11 11 10 9 9 9 9 9 9 9 10 11 10 9 9 10 10 11 10 10 10 10 11 11 11 11 10 11 11 10 10 11 12 13 16 17 17 16 16 16 18 19 17 15 15 12 8 7 8 10 13 11 9 10 12 15 16 19 27 27 26 28 27 27 27 26 26 26 28 28 29 30 31 31
18 18 18 16 15 13 11 9 6 5 5 7 9 9 9 10 9 9 8 7 8 8 8 9 9 10 10 10 9 10 10 11 10 9 9 9 9 8 8 8 8 8 7 6 7 9 11 13 15 15 14 11 12 14 15 17 19 18 20 21 15 11 9 10 12 10 9 13 13 12 13 19 27 28 27 28 28 28 30 31 30 29 28 27 27 28 30 30
19 19 16 14 12 10 9 7 4 3 3 4 6 6 8 9 8 8 7 6 6 6 7 8 9 9 10 10 10 11 11 12 12 11 11 11 10 9 8 9 7 3 4 8 9 9 10 12 12 10 12 12 13 15 15 15 17 18 18 20 20 18 15 15 15 13 13 15 15 13 13 19 28 30 28 28 28 28 28 29 31 30 29 28 26 27 28 29
19 17 13 10 9 7 6 5 3 2 1 2 3 4 5 7 7 7 7 6 6 6 6 7 8 8 9 9 10 10 11 12 11 10 12 12 12 12 11 11 7 6 6 11 12 9 7 8 8 11 14 15 17 18 17 16 16 17 17 16 18 17 15 16 18 16 17 18 18 17 17 21 28 29 29 29 28 28 28 28 29 29 30 29 27 27 26 26
18 14 9 7 6 5 4 3 2 2 1 0 1 2 4 4 4 4 5 4 4 4 5 5 6 7 7 7 7 7 8 9 9 8 10 11 11 11 11 12 9 9 9 10 11 11 8 8 10 13 15 17 18 17 17 18 17 17 18 18 19 15 13 16 16 13 14 15 17 17 17 23 30 30 29 29 28 29 31 31 31 31 31 31 30 30 28 27
15 9 6 4 4 3 3 2 2 3 2 1 2 2 3 3 3 4 4 3 3 3 4 4 5 5 5 5 5 6 6 6 6 6 7 8 7 8 10 12 11 10 8 7 9 12 13 15 14 12 13 14 14 12 10 12 15 14 12 15 20 17 15 18 16 11 9 11 14 13 10 15 25 29 29 30 31 32 34 34 35 34 33 33 33 33 32 32
10 5 3 3 3 3 2 1 2 2 2 3 3 2 3 3 4 5 4 2 1 2 4 5 4 3 3 4 4 5 5 5 5 5 5 5 5 5 5 6 8 8 8 8 8 10 13 18 18 15 14 13 13 11 7 8 11 9 8 11 14 15 17 18 16 13 10 10 11 12 12 11 14 21 27 31 34 35 36 36 36 36 35 35 35 35 35 34
6 3 2 3 3 2 1 1 1 2 2 2 3 3 3 3 4 6 5 2 2 4 5 6 6 4 4 4 4 4 4 3 4 3 3 2 2 4 4 4 5 8 11 12 8 8 13 16 15 16 17 16 17 16 13 12 11 9 11 12 10 10 15 17 15 14 14 13 11 13 18 15 13 17 21 26 31 34 36 37 37 37 37 37 37 36 36 36
5 4 2 2 2 2 1 1 1 1 2 2 2 3 3 4 5 6 4 2 3 3 4 5 7 5 3 4 4 4 4 2 2 2 1 1 2 4 6 6 6 6 10 12 7 5 9 10 9 10 11 11 15 16 15 14 13 12 13 12 10 8 11 14 13 14 14 13 14 17 19 13 13 18 19 20 25 29 32 34 35 36 36 37 38 37 37 37
5 4 3 3 2 2 1 1 1 1 1 1 1 2 3 4 5 5 2 2 3 4 4 5 7 6 4 4 4 5 4 3 3 2 2 1 2 3 4 5 6 5 5 9 9 7 7 7 6 6 6 8 12 14 15 16 15 16 16 14 12 10 11 11 10 13 12 10 15 21 20 11 9 15 19 19 22 26 29 32 32 32 32 33 35 36 37 37
5 5 4 3 3 3 2 2 2 1 0 0 1 1 3 4 5 3 1 3 4 4 6 7 7 6 5 6 5 5 4 3 3 3 2 2 3 3 3 3 3 3 2 5 10 11 10 10 9 7 8 10 12 11 12 15 16 17 19 17 14 13 12 12 12 13 8 9 20 23 20 15 7 9 17 21 23 26 28 30 30 29 29 30 32 33 34 35
6 5 5 4 4 4 3 3 2 1 1 1 1 2 3 4 4 3 2 4 4 4 7 8 7 6 6 6 5 5 4 3 3 3 3 3 3 3 3 3 2 2 2 3 6 9 10 11 11 10 11 12 12 12 10 12 14 15 15 11 9 9 7 8 11 11 5 8 19 20 20 19 11 8 15 20 23 26 28 30 28 27 27 28 30 31 32 33
6 6 5 5 4 4 4 4 3 3 2 2 2 2 3 3 4 5 4 4 4 4 7 8 7 7 7 6 6 5 4 4 4 4 5 5 4 5 4 3 3 3 3 3 4 6 8 9 10 10 11 12 12 10 7 7 8 8 9 6 3 3 4 3 4 6 6 9 11 11 17 19 15 18 22 21 22 24 25 27 26 25 25 27 29 29 30 32
7 6 6 5 5 5 4 4 4 4 3 3 2 3 4 3 3 6 7 7 5 4 7 8 7 7 7 6 6 5 5 5 6 6 7 7 6 6 5 5 4 4 5 5 4 4 6 7 8 9 9 9 9 7 5 4 3 3 5 7 5 2 1 3 4 3 5 11 13 12 14 11 11 20 26 24 23 23 22 23 22 22 24 26 28 28 29 31
7 7 7 6 6 6 5 5 4 4 4 3 3 4 5 3 4 6 9 10 8 4 6 7 7 7 7 6 6 6 6 6 6 7 7 7 6 5 5 5 5 6 6 4 3 4 4 4 4 5 5 5 5 6 8 7 6 6 6 8 7 5 3 2 2 1 1 3 6 9 10 6 7 13 18 19 20 22 24 25 25 24 25 25 26 27 28 29
7 7 7 7 7 7 6 6 5 4 4 4 4 5 5 5 6 7 8 11 10 6 6 7 7 7 7 7 7 7 7 5 4 5 4 4 4 4 4 4 4 6 6 5 3 4 5 4 4 4 5 5 4 4 7 8 7 7 8 8 8 9 8 5 6 7 4 4 2 6 6 8 10 12 16 16 16 20 22 24 27 28 29 29 28 27 27 27
8 8 8 8 8 7 6 6 6 5 5 5 5 6 8 8 8 8 8 10 10 8 7 7 7 7 7 7 8 8 7 5 4 3 3 3 3 4 4 5 4 5 7 6 4 3 3 4 5 5 6 6 5 5 6 6 7 7 7 6 7 9 9 8 10 12 8 3 5 9 9 11 12 12 17 19 19 20 20 21 24 26 27 28 28 27 27 26
8 8 8 8 8 7 7 7 6 6 6 7 7 8 9 10 11 10 9 10 10 9 9 7 6 7 6 6 7 7 6 5 4 4 3 3 3 3 3 4 3 4 7 7 5 4 4 5 6 7 7 7 7 7 7 7 9 8 6 6 7 7 8 7 5 5 4 3 6 10 12 12 9 9 16 20 21 22 23 23 23 23 24 25 25 26 26 26
9 9 9 9 8 8 8 7 7 7 7 8 9 9 9 10 10 10 9 10 10 9 10 9 8 7 8 8 7 8 8 6 6 6 4 3 3 3 4 4 4 5 6 7 6 5 5 4 4 5 6 7 6 7 7 7 9 8 7 8 7 4 4 6 4 1 3 4 4 8 13 9 7 7 11 15 18 21 22 21 22 24 24 23 24 23 23 24
9 9 9 9 8 7 7 7 8 8 8 8 8 9 9 9 9 9 10 10 10 10 11 11 10 8 9 9 8 9 10 8 8 8 6 4 5 5 5 5 5 5 6 7 7 6 4 2 3 4 4 5 5 5 6 7 8 8 8 8 7 5 3 4 5 3 2 3 3 6 8 3 4 6 5 8 16 19 19 19 19 21 21 21 22 22 22 22
9 9 9 9 8 7 7 7 7 7 8 8 8 8 9 9 10 10 10 10 10 11 11 10 10 10 10 10 9 10 11 10 10 10 8 7 6 6 6 6 6 6 6 7 7 6 4 4 5 4 3 5 5 4 6 8 9 9 9 8 7 8 6 6 10 9 5 3 2 4 3 2 2 4 2 7 15 16 16 17 16 15 15 16 18 20 21 21
9 9 8 8 8 7 7 7 6 7 7 8 8 9 9 10 10 10 10 10 10 10 9 9 10 10 11 11 11 11 12 11 11 10 10 10 8 6 5 5 6 5 6 7 6 6 5 7 9 7 5 6 5 7 10 12 12 11 10 8 8 8 5 3 5 7 6 3 2 3 2 1 5 6 4 7 12 14 15 16 16 16 15 16 17 18 20 21
9 9 8 8 7 7 7 6 7 7 7 8 8 9 9 9 9 9 9 9 9 9 9 9 10 10 10 10 10 10 10 10 10 10 10 9 8 7 5 4 5 5 6 6 6 5 5 7 7 6 6 7 8 10 12 10 9 9 7 6 7 7 5 4 3 4 5 5 5 5 3 6 12 13 10 10 11 12 14 15 16 17 16 16 16 17 19 20
9 9 9 8 7 7 7 7 7 7 7 8 8 8 8 8 8 9 8 8 9 9 8 8 9 9 9 9 8 8 9 8 8 9 9 8 8 7 6 6 5 6 6 5 4 4 3 3 2 2 4 7 8 8 6 4 3 5 5 4 4 3 2 6 7 6 8 11 9 4 2 7 11 10 9 10 10 12 15 16 17 18 18 17 16 17 19 21
10 10 9 8 8 8 7 7 6 6 7 7 8 8 8 8 8 8 8 8 8 8 8 8 8 8 8 8 8 8 8 7 7 8 8 8 7 6 6 6 5 4 4 4 4 3 3 3 3 3 2 3 4 2 1 1 1 2 4 5 5 6 5 6 8 7 7 9 9 6 4 6 7 6 9 12 14 18 21 21 20 21 20 19 18 18 19 21
10 10 9 8 8 8 7 7 7 7 6 6 7 8 7 7 8 8 7 7 7 6 7 7 7 7 6 7 7 7 7 6 6 8 8 6 6 5 5 5 3 3 4 4 4 4 4 5 5 4 3 2 2 2 2 3 4 5 8 10 12 14 13 10 8 7 5 5 8 10 8 8 11 12 14 18 20 23 24 23 22 21 20 19 19 20 21 22
10 10 9 8 8 8 8 8 7 7 6 6 7 7 7 7 7 7 6 6 6 6 6 6 6 6 6 6 6 6 6 5 5 7 7 5 5 5 4 3 3 3 3 3 3 3 4 5 5 6 6 6 5 5 6 10 11 12 14 15 15 15 14 11 9 8 9 12 17 20 18 19 20 18 17 20 22 23 25 25 23 23 22 20 19 20 21 23
10 10 10 9 8 8 7 8 7 6 6 6 6 6 7 6 6 6 6 6 6 6 6 6 6 6 6 6 6 6 6 5 4 5 5 5 4 4 3 3 2 3 3 2 2 2 3 4 4 5 7 9 10 10 12 13 14 15 16 16 15 14 13 13 13 13 12 13 17 18 18 22 24 19 18 23 26 27 30 31 31 31 31 29 28 27 27 28
10 10 9 9 8 7 7 7 7 6 6 6 6 6 6 6 6 6 6 6 6 6 6 6 6 6 6 6 6 6 6 6 5 5 5 4 4 4 3 2 1 2 1 1 1 1 2 2 2 3 5 7 9 10 11 12 14 16 16 16 16 15 15 16 18 19 18 19 22 22 22 27 29 26 26 29 31 32 33 33 33 34 35 34 32 30 29 30
9 9 9 8 7 8 8 7 6 6 6 6 5 6 6 5 5 6 6 5 6 6 6 5 6 6 6 6 5 5 5 4 4 5 4 4 4 3 2 2 2 1 0 0 0 1 1 1 1 3 5 6 8 8 10 12 14 16 17 17 17 17 18 19 21 22 23 27 31 32 34 36 34 30 31 32 32 31 29 25 25 29 31 29 27 27 29 30
9 9 8 7 7 7 7 7 6 6 6 6 6 6 6 5 5 5 5 5 6 6 5 5 6 6 6 6 5 5 4 3 3 4 4 3 3 2 2 2 2 1 0 1 1 1 1 2 3 4 7 8 7 7 9 12 15 19 19 18 17 18 18 18 20 20 22 27 29 28 32 34 30 26 27 27 27 27 25 22 23 27 30 29 28 29 31 33
9 8 8 7 7 7 7 7 7 7 6 6 5 5 6 6 6 6 6 5 6 6 5 5 6 6 5 5 5 5 4 4 3 4 4 3 2 2 2 2 1 1 0 1 1 1 2 3 4 6 7 8 7 8 11 15 19 21 17 10 9 11 13 13 15 16 19 23 23 23 29 30 25 23 24 24 25 26 25 24 25 27 30 31 30 31 33 34
8 8 7 7 7 7 7 8 7 7 6 6 5 5 5 5 5 6 6 6 6 6 6 6 6 6 6 5 5 5 4 3 3 3 3 3 2 3 2 1 2 1 0 1 1 2 3 4 5 5 5 6 8 10 13 16 16 12 7 5 8 10 12 13 15 17 18 20 21 24 27 24 20 21 24 25 27 28 28 28 27 26 30 33 33 34 36 36
Wind_Direction
301 302 302 302 300 297 291 284 280 277 277 277 276 272 268 265 263 261 257 255 253 252 252 251 250 252 252 251 252 253 253 252 252 250 250 251 250 249 250 251 252 251 248 244 239 235 233 233 232 229 228 228 227 228 228 226 219 219 225 228 234 237 239 242 250 256 250 251 255 251 253 257 252 247 245 246 240 237 241 241 241 243 244 245 245 243 240 242
304 306 305 305 303 300 294 288 283 279 280 280 277 273 268 265 264 263 261 258 255 253 251 250 249 249 250 251 250 251 253 255 253 250 249 248 246 245 246 246 248 249 247 246 241 236 233 230 229 228 224 223 225 227 229 228 222 222 226 231 237 237 238 238 249 262 256 254 257 255 258 258 251 247 245 248 245 238 240 245 246 245 246 245 243 242 239 240
309 310 308 308 307 304 297 291 288 285 284 282 278 272 266 263 262 263 263 261 257 254 253 252 250 249 249 250 250 250 252 254 253 253 251 246 243 242 242 242 244 246 245 245 243 239 234 228 225 223 219 218 220 222 226 229 226 227 229 235 239 240 240 237 245 262 259 255 257 257 254 247 247 250 248 248 246 239 235 237 240 241 242 243 242 242 241 240
313 312 309 308 308 307 299 291 288 287 287 285 280 273 266 263 262 261 260 259 259 257 255 254 253 252 250 249 249 250 253 254 254 253 250 246 244 241 240 240 240 242 244 244 243 241 237 235 231 226 219 215 214 218 224 227 230 231 231 235 238 239 242 240 245 255 256 253 254 257 253 247 255 259 256 252 246 242 238 233 232 234 237 240 239 238 239 240
314 312 308 306 306 306 301 293 288 287 287 286 284 278 271 265 262 260 258 258 258 257 258 256 255 253 251 250 248 249 251 253 254 251 248 248 247 244 241 238 237 238 242 243 242 241 239 239 237 232 227 219 212 214 222 225 231 235 235 239 240 239 241 244 248 250 250 251 250 254 254 253 260 259 256 253 246 241 241 238 234 232 233 233 233 235 237 237
313 312 306 303 303 304 301 295 290 288 287 286 285 281 276 270 264 260 258 256 255 256 257 257 256 254 252 250 247 247 246 247 251 249 248 249 246 245 243 239 238 237 239 240 240 241 238 236 236 234 235 230 218 216 221 225 233 238 239 241 242 244 245 247 251 250 248 249 249 250 250 252 258 260 258 256 252 250 249 248 244 237 233 234 237 240 238 237
311 311 308 302 299 300 298 293 290 288 287 285 282 280 277 273 269 265 259 255 255 255 255 256 254 252 252 250 248 246 245 244 247 247 248 249 247 246 244 243 241 237 236 236 238 239 237 235 235 233 235 235 228 223 225 227 236 240 241 240 240 246 250 247 249 252 249 249 249 251 253 256 259 258 256 256 256 255 253 252 252 245 238 242 249 248 244 242
308 310 310 303 297 297 297 292 288 286 285 284 282 278 274 272 271 268 263 258 256 256 256 253 251 249 250 250 247 246 246 245 246 246 247 249 250 248 247 245 242 238 235 233 235 236 236 235 232 231 233 236 234 231 230 232 240 244 243 241 238 241 250 248 247 251 251 252 251 252 256 257 256 254 254 257 255 252 252 253 257 255 245 247 252 251 248 247
306 307 309 304 297 296 295 291 288 285 283 282 281 279 274 270 268 266 264 262 258 256 254 250 249 248 248 249 246 245 245 243 244 246 247 248 250 250 249 246 241 237 234 232 231 232 234 234 230 228 229 232 231 228 226 228 238 246 243 241 240 238 249 253 250 250 251 253 253 252 256 256 253 253 253 255 255 254 252 251 255 261 258 255 255 254 250 247
301 303 306 303 297 295 292 289 288 286 282 279 278 278 275 270 266 264 262 263 260 256 252 248 246 246 247 248 245 245 245 243 244 246 247 248 248 248 248 245 241 235 232 230 228 230 233 231 227 225 225 226 226 225 222 217 226 242 240 237 239 236 242 251 251 252 251 253 254 253 254 255 253 252 251 253 256 256 255 254 254 257 261 260 257 254 251 248
295 299 304 301 297 293 290 288 286 284 281 277 276 275 274 271 267 264 262 261 261 259 255 249 244 243 245 246 247 248 249 248 247 246 247 247 247 247 247 245 243 240 237 234 230 228 225 224 223 223 224 225 226 228 228 220 219 233 236 233 236 235 236 244 249 252 255 256 257 255 252 252 253 252 251 253 257 257 257 259 257 257 261 262 259 255 252 249
293 298 301 299 295 291 289 288 286 283 280 277 276 275 273 271 268 265 263 262 261 260 258 253 246 242 242 245 251 253 252 252 249 247 246 247 247 247 247 246 245 243 242 239 236 231 225 228 231 228 226 228 228 232 238 232 226 231 236 235 238 239 239 243 249 251 256 260 258 258 259 257 257 258 256 254 256 259 259 260 257 257 259 261 260 257 254 250
295 299 298 295 292 289 288 287 285 284 283 281 280 278 274 270 266 262 261 259 258 257 256 254 248 244 244 246 250 250 250 251 249 248 247 247 247 246 246 246 246 245 244 242 240 238 236 235 235 231 227 224 222 226 237 239 236 239 242 245 245 246 245 242 245 249 253 259 256 255 261 261 262 260 258 256 257 260 262 260 255 253 255 257 257 256 254 252
300 301 298 294 291 289 288 287 285 284 285 285 284 281 275 269 264 259 257 255 254 253 251 250 248 246 246 245 244 245 247 249 250 249 248 248 247 246 246 246 246 244 244 244 243 243 241 235 230 228 228 225 224 230 236 241 246 249 249 250 248 249 253 249 248 248 243 247 250 248 251 253 255 258 259 259 259 259 260 258 252 249 249 251 253 253 253 253
307 306 301 297 293 289 286 283 281 281 281 282 281 278 273 266 260 255 252 250 249 248 247 245 245 245 245 242 242 244 246 248 250 250 249 249 247 246 247 247 246 244 243 243 240 238 235 232 229 227 228 229 232 236 240 246 254 253 243 246 248 250 256 258 251 241 234 242 245 239 243 249 249 250 253 252 246 244 249 253 253 251 247 246 248 250 251 253
314 311 307 302 297 292 286 279 275 274 273 272 271 268 265 257 253 250 246 245 244 243 242 240 240 242 243 242 242 244 246 246 247 249 249 249 248 248 247 246 246 244 242 240 237 235 233 231 230 230 233 232 233 237 239 246 252 245 239 241 249 255 260 251 234 228 231 241 240 233 235 242 246 245 240 235 231 235 243 252 258 258 252 248 248 248 249 250
318 315 311 308 304 300 294 284 275 267 262 261 260 258 255 248 247 246 244 242 239 239 238 238 239 239 240 241 242 244 246 246 246 246 248 249 250 249 247 247 247 246 245 241 237 236 234 234 235 236 240 240 237 234 232 233 233 237 242 242 243 246 242 227 224 227 228 231 235 238 233 227 238 239 229 228 231 236 243 251 259 261 259 255 252 250 248 248
319 316 314 312 310 308 304 295 282 266 256 253 253 253 252 249 249 249 251 248 241 237 235 238 236 234 239 241 241 245 245 247 248 247 248 249 249 250 249 248 248 247 246 244 241 240 237 236 238 238 239 242 235 224 222 219 215 228 234 238 243 242 236 234 237 234 228 229 233 236 230 230 237 235 226 231 237 242 248 254 260 262 262 260 257 253 250 248
321 319 318 316 313 312 309 304 292 270 255 249 249 251 252 251 252 252 254 251 243 235 233 236 232 230 240 242 239 243 246 248 249 248 249 250 251 251 250 248 247 246 244 244 243 240 239 236 237 236 234 237 236 231 231 225 219 238 239 235 243 244 241 240 241 236 225 229 229 225 225 234 242 241 235 237 240 245 251 256 260 261 260 259 258 256 253 250
324 323 321 318 314 313 311 307 300 276 256 248 247 249 250 252 254 254 254 249 243 235 230 231 230 230 236 239 236 238 242 244 244 245 245 246 249 249 250 249 245 245 243 243 248 244 238 237 237 239 241 241 244 250 248 237 233 247 255 253 246 237 246 244 239 235 222 226 230 229 227 234 245 249 245 245 246 247 250 254 257 259 260 259 257 257 255 253
325 325 322 317 315 313 312 312 309 284 257 246 245 247 249 251 251 252 254 248 239 232 226 226 229 229 233 237 239 239 241 244 244 245 246 244 247 245 245 245 238 245 238 209 235 249 235 237 242 246 255 254 245 252 260 248 239 246 254 257 255 242 259 278 264 250 234 233 238 240 234 234 243 248 247 249 251 251 252 254 256 258 261 261 260 258 257 255
326 325 321 316 316 318 318 319 324 303 262 243 242 243 245 248 246 245 246 238 227 224 225 229 232 234 239 242 244 246 248 250 250 249 251 248 245 239 233 237 223 213 224 199 210 241 246 254 261 254 256 253 239 237 242 241 240 246 252 259 261 253 258 272 268 259 248 244 244 238 232 237 243 246 247 249 251 253 256 256 257 257 259 261 261 260 259 258
325 323 319 319 323 326 328 331 344 338 262 235 236 236 239 239 237 234 232 229 229 229 231 235 238 239 244 246 247 250 250 253 254 251 251 246 244 243 239 241 215 171 210 214 207 221 252 267 250 232 232 230 232 233 231 232 235 241 243 247 255 255 254 259 260 256 247 244 244 237 231 238 244 245 246 247 249 252 256 258 258 256 255 257 258 259 259 259
323 320 318 324 329 329 338 355 23 40 54 112 212 220 224 219 213 212 215 218 216 217 222 226 230 232 235 238 241 245 245 250 251 247 249 248 250 249 238 234 216 193 214 224 213 210 224 244 229 224 230 227 231 237 236 240 245 250 252 251 254 251 245 251 255 252 240 240 241 234 234 242 243 244 246 247 249 250 251 254 256 256 256 256 257 258 258 258
320 317 314 319 322 319 334 13 58 77 97 134 155 174 186 180 175 178 181 179 179 195 208 212 214 213 217 225 233 237 234 237 241 240 246 249 250 246 236 231 219 210 220 231 230 221 227 244 238 229 233 228 231 237 237 250 255 257 261 260 259 253 243 247 250 245 240 247 245 232 237 251 245 244 248 247 247 249 249 251 254 256 257 257 258 258 258 259
315 309 301 300 299 296 310 9 69 94 107 123 132 140 149 151 153 157 160 154 173 222 214 205 203 208 227 232 234 233 230 231 233 233 237 240 242 238 230 229 219 208 202 208 233 236 236 246 245 240 239 233 238 246 240 247 250 252 254 250 253 247 240 245 250 247 244 254 255 234 230 254 251 240 242 243 244 246 248 250 252 253 255 256 258 259 259 260
309 300 292 287 284 283 301 15 74 86 88 112 128 139 148 150 150 153 161 197 240 242 237 225 219 232 243 233 225 219 220 227 216 207 213 211 218 216 188 182 204 201 198 203 223 241 240 248 251 248 249 248 251 251 240 234 234 236 244 244 244 236 229 237 247 251 250 256 260 237 230 249 262 246 242 243 242 244 247 249 251 252 253 254 256 257 258 260
311 307 303 296 289 299 333 4 60 88 99 119 129 143 152 148 147 151 164 226 217 215 235 221 210 218 226 221 215 206 203 213 207 191 188 166 172 204 196 198 216 216 210 210 212 235 241 250 262 256 250 246 244 242 231 223 218 220 234 240 238 231 222 229 240 245 251 257 256 238 226 239 262 250 246 245 243 245 247 248 250 251 252 254 255 256 257 258
318 316 318 316 314 319 320 340 11 67 91 109 132 151 158 150 150 151 168 251 217 208 218 196 197 214 221 214 205 202 206 202 206 205 189 194 198 209 212 214 228 243 230 211 210 232 241 241 260 263 236 218 229 238 228 220 217 221 233 240 239 242 237 236 239 241 248 252 248 237 219 217 262 256 245 242 241 243 245 246 248 250 252 254 255 256 257 258
321 321 324 320 317 314 312 336 353 19 61 159 168 175 169 159 161 162 199 227 211 217 220 204 208 223 219 208 190 184 194 188 202 222 222 230 225 224 230 220 226 239 228 209 219 239 251 253 261 260 240 224 228 239 232 228 231 235 246 253 258 262 257 253 246 240 247 246 245 240 218 210 244 255 239 236 238 240 244 248 248 249 251 253 256 256 257 259
322 320 319 314 315 316 322 333 327 308 285 237 217 206 190 179 185 198 222 215 211 221 218 208 211 216 207 200 191 188 203 212 225 234 237 233 229 234 234 230 237 226 216 225 233 248 260 266 269 264 255 244 240 245 244 244 246 249 255 257 263 263 249 248 238 223 222 248 249 241 218 215 223 229 232 234 238 242 246 251 253 252 253 254 256 257 257 257
319 315 314 310 311 315 317 315 302 296 287 258 247 214 191 188 208 224 224 203 207 225 215 206 206 208 207 207 211 216 223 233 240 241 245 244 244 251 250 246 241 205 182 183 204 247 270 276 278 274 264 259 256 254 254 257 254 255 250 223 202 233 204 206 214 206 222 245 253 233 211 216 226 234 240 238 237 241 245 252 256 256 256 256 256 257 255 254
312 311 312 310 309 310 308 303 298 298 291 271 254 214 185 173 206 226 226 212 213 226 207 202 206 208 209 211 219 226 230 246 255 255 258 259 261 262 251 249 241 205 180 166 175 237 272 277 277 274 268 267 264 243 210 215 206 186 215 203 193 212 213 217 211 205 240 245 248 230 207 210 223 233 243 244 241 245 249 254 257 255 254 255 256 257 256 253
310 311 311 311 311 311 310 304 298 294 286 264 249 224 196 197 230 232 226 220 222 219 194 196 204 207 209 218 229 238 242 256 265 262 264 265 264 261 244 243 242 223 214 208 216 238 246 261 268 266 265 274 273 233 209 214 201 176 193 207 223 254 268 231 198 131 22 288 248 212 196 219 229 231 247 254 252 253 253 254 256 256 255 256 258 259 259 256
310 311 311 314 315 315 313 307 300 290 278 262 247 232 214 225 245 240 228 222 220 212 199 200 206 214 223 232 240 246 244 248 258 256 258 255 249 250 246 241 236 227 218 214 233 241 242 256 267 266 266 275 288 261 238 236 226 210 209 213 238 258 257 268 290 284 295 350 290 205 212 259 255 245 252 259 260 257 256 256 255 256 257 258 260 262 263 262
309 311 314 316 315 315 309 302 298 285 271 263 244 232 231 238 247 248 235 222 218 216 212 207 215 229 238 239 237 237 236 235 236 232 231 247 259 263 257 250 245 232 213 203 215 228 223 244 266 273 273 274 278 275 264 245 232 229 217 216 236 249 258 275 291 283 272 285 256 226 231 256 258 262 261 258 261 260 258 258 256 256 258 258 260 260 261 263
311 314 315 315 313 309 304 298 291 278 267 261 246 238 242 244 247 248 234 219 216 216 210 203 214 225 226 229 223 213 210 207 213 223 227 244 263 269 249 235 229 218 210 207 208 226 245 262 279 279 274 279 279 274 269 248 239 239 228 234 244 246 257 256 267 292 268 252 253 228 225 231 229 254 264 259 259 260 257 256 256 257 256 256 257 257 258 259
314 315 315 314 311 306 301 293 283 274 265 257 247 244 247 247 242 238 226 218 216 214 209 208 216 219 214 217 210 198 198 194 197 210 213 225 251 259 244 233 230 222 220 218 205 217 255 274 281 277 273 283 285 270 264 254 244 240 239 250 249 243 266 242 220 292 272 253 267 237 233 224 197 224 258 261 260 260 260 259 255 254 254 254 256 256 256 256
313 314 313 312 309 301 293 286 280 271 256 248 245 244 246 242 234 229 223 220 216 213 216 219 222 221 219 222 216 203 205 206 205 211 218 227 244 253 251 243 237 227 224 226 220 220 238 251 264 277 270 278 285 260 254 261 248 235 239 250 240 228 259 260 247 284 298 265 278 253 246 210 183 226 256 267 265 265 269 272 268 268 269 267 267 266 262 259
311 313 312 311 306 297 292 286 274 256 246 250 251 248 246 238 230 227 223 222 219 219 226 230 225 220 220 224 219 211 214 220 223 227 229 226 229 244 252 242 233 232 231 232 232 225 214 213 234 246 253 268 282 276 283 293 283 263 257 268 267 247 248 263 263 265 265 270 299 267 255 125 207 253 238 249 266 273 278 287 297 302 299 287 280 276 271 268
313 314 311 309 303 297 295 284 258 243 249 260 257 248 244 237 231 227 224 223 222 222 228 231 227 225 226 225 224 222 223 227 228 228 225 224 225 232 243 234 220 226 234 235 238 229 209 217 236 257 287 287 284 293 297 297 293 286 277 278 281 268 259 262 266 264 254 255 315 290 276 237 244 252 228 234 260 278 288 301 314 316 311 300 289 282 278 274
314 314 312 307 301 298 294 272 251 251 261 265 258 247 241 235 229 227 225 223 222 223 227 228 227 231 232 230 229 228 226 223 220 218 217 220 224 223 223 222 215 226 245 249 251 243 225 231 250 271 289 288 292 299 299 294 289 286 276 266 266 266 254 213 229 312 304 277 295 303 282 258 252 255 261 255 256 278 298 309 312 312 312 306 296 286 279 275
315 315 313 305 299 298 288 269 257 261 267 264 254 244 236 231 226 225 224 222 222 223 225 224 220 222 224 223 224 221 214 210 209 210 209 208 213 217 220 230 236 242 254 255 243 241 234 232 244 245 259 278 296 306 307 302 285 270 265 272 278 282 256 230 245 296 297 272 276 295 266 248 246 248 266 270 270 289 304 310 308 310 313 310 300 290 282 277
317 314 311 304 299 296 284 274 270 269 269 261 248 238 232 225 220 222 223 221 221 220 216 213 210 212 212 210 213 211 204 203 205 204 202 200 205 213 218 227 236 235 240 236 220 224 225 199 172 167 218 270 287 304 56 115 183 263 291 299 306 309 299 268 259 268 279 269 254 239 249 257 247 251 275 285 291 296 301 308 310 310 309 308 303 294 285 279
316 313 310 303 297 292 281 274 273 269 266 258 247 237 229 224 220 220 220 217 216 213 207 205 203 205 204 199 200 198 196 201 202 199 198 197 202 209 212 217 223 224 229 228 221 230 230 210 192 189 199 222 222 175 162 222 263 296 296 291 297 300 294 284 270 248 249 261 233 225 245 276 284 292 296 298 300 300 301 304 308 308 306 303 299 292 284 278
314 310 308 301 295 289 277 269 271 269 258 251 246 234 225 225 221 216 215 213 210 206 201 199 198 197 196 192 189 187 190 194 193 192 195 194 195 198 206 212 211 205 216 228 228 224 218 218 217 216 224 240 247 243 254 272 284 287 285 285 288 291 288 283 270 237 238 268 265 253 255 269 279 290 299 299 299 300 299 299 300 301 300 297 294 291 288 283
311 307 304 299 293 288 278 270 272 270 256 249 248 234 225 225 217 211 212 210 208 202 195 192 191 193 192 187 184 182 179 178 178 182 183 185 187 191 198 212 211 189 193 207 206 205 210 212 212 220 238 252 261 269 274 281 286 284 283 286 283 280 275 265 257 250 253 271 271 261 258 262 266 273 286 290 291 293 295 295 295 293 291 289 288 287 287 286
307 304 301 295 285 284 284 276 270 265 253 247 243 229 221 221 214 210 212 210 204 197 194 194 191 190 189 184 181 177 171 170 174 176 176 177 179 181 184 192 195 178 174 166 154 216 229 211 212 242 257 263 269 278 282 283 286 285 285 287 284 279 273 263 259 260 259 260 263 268 271 269 269 274 279 281 283 287 290 292 293 291 288 286 285 284 281 279
303 300 299 293 282 281 281 274 267 259 250 244 234 222 215 214 210 208 210 207 199 193 194 196 188 183 181 177 175 172 169 170 173 171 174 176 174 176 172 167 167 155 119 356 51 5 281 276 304 282 276 278 281 287 289 288 288 288 287 287 286 282 277 272 270 267 263 262 267 274 277 278 281 286 284 282 283 285 285 285 285 284 284 285 284 280 276 274
301 298 295 292 286 284 277 268 263 256 249 241 229 219 212 207 202 201 201 198 194 192 191 187 181 179 176 171 167 165 164 164 163 162 167 172 172 171 156 147 154 154 79 12 20 4 322 316 319 312 304 302 303 304 303 301 298 296 295 292 286 281 278 274 273 272 268 267 273 278 278 281 288 291 288 287 287 287 285 279 272 272 276 278 278 277 277 278
298 295 292 289 285 280 273 265 261 255 249 242 232 221 211 205 201 198 194 191 189 190 189 185 178 175 174 169 164 161 158 157 156 156 160 167 166 157 149 144 145 150 127 344 333 337 337 321 317 320 314 310 316 315 310 308 302 298 300 306 295 284 283 281 278 276 274 275 280 280 277 283 290 288 284 283 283 284 284 279 273 271 271 272 272 273 277 282
296 291 287 285 282 276 270 264 258 253 248 238 227 216 209 211 210 198 191 193 194 190 188 188 183 175 173 169 163 161 159 158 156 151 154 166 173 164 157 153 150 150 193 321 316 321 324 314 312 316 308 301 307 310 311 312 307 299 301 327 319 304 297 291 285 281 280 280 279 276 278 284 284 277 276 278 280 282 281 279 277 273 272 275 277 278 280 284
Height
3047 3046 3046 3045 3044 3043 3042 3041 3042 3042 3043 3043 3043 3043 3043 3043 3043 3044 3044 3044 3045 3046 3046 3047 3048 3048 3048 3049 3049 3050 3050 3051 3051 3051 3052 3053 3054 3055 3056 3057 3057 3058 3059 3059 3060 3061 3061 3062 3064 3065 3066 3067 3068 3070 3071 3072 3074 3075 3075 3075 3074 3075 3078 3080 3082 3081 3081 3082 3082 3083 3083 3084 3084 3085 3086 3086 3088 3088 3089 3090 3090 3091 3092 3092 3093 3094 3095 3096
3045 3045 3044 3043 3042 3041 3040 3040 3040 3040 3041 3041 3041 3041 3041 3041 3041 3042 3042 3042 3043 3044 3044 3045 3046 3046 3047 3047 3047 3048 3048 3049 3049 3049 3051 3052 3052 3053 3055 3055 3056 3057 3057 3058 3059 3059 3060 3061 3062 3063 3064 3066 3067 3069 3070 3071 3072 3072 3073 3072 3072 3074 3077 3080 3081 3079 3080 3080 3080 3082 3082 3083 3083 3083 3085 3085 3086 3087 3088 3089 3089 3089 3090 3090 3091 3092 3093 3094
3043 3043 3042 3042 3041 3040 3039 3039 3038 3039 3039 3039 3039 3039 3040 3040 3040 3040 3040 3040 3041 3042 3042 3043 3044 3045 3045 3045 3046 3046 3047 3048 3047 3048 3050 3050 3050 3052 3053 3054 3055 3055 3056 3057 3057 3058 3059 3060 3061 3062 3063 3065 3066 3067 3068 3069 3070 3070 3071 3070 3070 3075 3077 3078 3080 3078 3078 3079 3079 3080 3081 3081 3082 3082 3083 3084 3085 3085 3086 3086 3086 3087 3087 3088 3089 3090 3090 3091
3042 3041 3041 3040 3039 3039 3038 3037 3037 3037 3038 3038 3038 3038 3038 3038 3038 3038 3039 3039 3039 3040 3040 3041 3042 3043 3043 3044 3044 3044 3045 3045 3045 3048 3049 3048 3049 3050 3051 3052 3053 3054 3055 3055 3056 3057 3058 3059 3059 3060 3061 3063 3065 3066 3067 3067 3068 3069 3069 3068 3071 3074 3075 3076 3078 3076 3075 3076 3077 3078 3079 3080 3081 3081 3081 3082 3083 3083 3083 3083 3083 3084 3085 3085 3086 3087 3087 3087
3040 3040 3039 3038 3038 3037 3037 3036 3036 3036 3036 3036 3036 3036 3037 3037 3037 3037 3037 3037 3038 3038 3039 3040 3041 3041 3041 3042 3042 3043 3043 3043 3044 3046 3046 3047 3048 3049 3050 3050 3051 3052 3053 3054 3055 3056 3056 3058 3059 3059 3060 3061 3063 3064 3065 3066 3067 3067 3067 3068 3071 3072 3073 3074 3075 3073 3073 3075 3076 3076 3077 3078 3079 3080 3079 3080 3081 3081 3081 3081 3082 3083 3084 3084 3084 3084 3083 3084
3039 3038 3037 3037 3036 3036 3036 3035 3035 3034 3034 3035 3035 3035 3035 3035 3035 3035 3036 3036 3036 3037 3037 3038 3039 3039 3040 3040 3040 3041 3041 3041 3042 3044 3045 3045 3046 3047 3048 3048 3049 3050 3051 3053 3054 3054 3055 3056 3057 3058 3059 3060 3061 3062 3064 3065 3066 3065 3066 3068 3069 3070 3071 3072 3072 3071 3072 3074 3074 3075 3075 3077 3078 3078 3078 3078 3079 3079 3079 3080 3081 3081 3082 3082 3082 3082 3081 3083
3037 3036 3036 3035 3035 3034 3034 3034 3033 3033 3033 3033 3033 3034 3034 3034 3034 3034 3034 3035 3035 3035 3036 3037 3037 3037 3038 3038 3039 3039 3039 3040 3041 3042 3043 3044 3045 3046 3046 3047 3048 3049 3050 3051 3052 3053 3054 3055 3056 3057 3058 3059 3060 3061 3063 3064 3064 3063 3065 3067 3068 3069 3069 3070 3069 3068 3071 3072 3072 3073 3074 3076 3076 3076 3076 3076 3077 3078 3078 3079 3080 3080 3081 3080 3081 3081 3081 3082
3036 3035 3034 3033 3033 3033 3033 3033 3032 3032 3032 3032 3032 3032 3032 3032 3033 3033 3033 3033 3034 3034 3035 3035 3036 3036 3036 3036 3037 3036 3037 3039 3039 3040 3042 3043 3043 3044 3045 3045 3046 3047 3048 3049 3050 3051 3052 3053 3055 3056 3056 3057 3059 3060 3062 3063 3063 3062 3063 3065 3066 3067 3067 3066 3066 3066 3068 3070 3070 3072 3072 3074 3074 3074 3075 3074 3075 3076 3076 3077 3078 3079 3079 3079 3079 3080 3080 3081
3034 3033 3033 3032 3031 3031 3031 3031 3031 3030 3030 3030 3030 3031 3031 3031 3031 3032 3032 3032 3032 3033 3033 3034 3034 3035 3035 3035 3035 3034 3036 3037 3037 3039 3040 3041 3042 3043 3043 3044 3045 3046 3046 3047 3048 3049 3050 3052 3053 3054 3054 3055 3057 3058 3060 3061 3062 3061 3061 3063 3064 3065 3065 3064 3064 3065 3066 3067 3068 3070 3071 3071 3071 3072 3073 3073 3073 3074 3074 3076 3077 3077 3077 3078 3078 3079 3079 3079
3032 3031 3031 3030 3030 3030 3030 3030 3029 3029 3029 3029 3029 3029 3029 3030 3030 3030 3030 3030 3031 3031 3032 3033 3033 3033 3033 3033 3033 3033 3034 3035 3036 3037 3038 3039 3040 3041 3042 3043 3044 3044 3045 3046 3046 3047 3049 3050 3051 3052 3052 3053 3054 3055 3057 3059 3060 3059 3059 3061 3061 3063 3063 3062 3062 3063 3064 3065 3066 3068 3068 3069 3069 3069 3070 3071 3072 3072 3072 3074 3075 3075 3076 3076 3077 3077 3078 3078
3031 3030 3029 3029 3028 3028 3028 3028 3028 3028 3028 3028 3028 3028 3028 3028 3029 3029 3029 3029 3029 3030 3030 3031 3032 3032 3032 3032 3032 3032 3033 3034 3035 3036 3036 3037 3038 3039 3040 3041 3042 3043 3044 3044 3045 3046 3047 3048 3049 3049 3050 3051 3052 3053 3054 3056 3057 3057 3057 3058 3058 3059 3060 3060 3060 3061 3062 3063 3064 3065 3066 3066 3067 3067 3069 3070 3070 3070 3071 3072 3073 3073 3074 3075 3075 3076 3076 3076
3029 3029 3028 3027 3027 3026 3026 3027 3027 3027 3027 3027 3027 3026 3027 3027 3027 3027 3027 3027 3028 3028 3029 3029 3030 3030 3030 3031 3031 3031 3032 3033 3034 3034 3035 3036 3037 3037 3038 3039 3040 3041 3042 3043 3043 3044 3045 3046 3047 3048 3048 3050 3051 3052 3052 3052 3054 3054 3055 3056 3056 3057 3057 3058 3058 3060 3061 3061 3063 3064 3064 3064 3065 3066 3067 3068 3068 3068 3070 3070 3070 3071 3071 3072 3073 3073 3074 3074
3027 3027 3027 3026 3025 3025 3025 3025 3025 3025 3025 3025 3025 3025 3025 3025 3025 3026 3026 3026 3026 3027 3027 3028 3028 3029 3029 3030 3030 3031 3031 3032 3032 3033 3034 3034 3035 3036 3037 3037 3038 3039 3040 3041 3042 3043 3043 3044 3046 3046 3047 3048 3049 3049 3049 3050 3052 3053 3054 3055 3055 3055 3054 3056 3057 3058 3059 3060 3061 3063 3062 3063 3064 3063 3064 3065 3066 3066 3067 3067 3068 3068 3069 3070 3070 3071 3072 3072
3026 3026 3025 3024 3024 3023 3023 3023 3023 3023 3023 3023 3023 3023 3023 3023 3023 3024 3024 3024 3024 3025 3026 3026 3027 3027 3028 3029 3029 3029 3030 3030 3031 3032 3032 3033 3034 3034 3035 3036 3037 3037 3038 3039 3040 3041 3042 3043 3044 3044 3045 3046 3047 3047 3048 3049 3051 3052 3053 3053 3053 3053 3051 3054 3056 3056 3058 3058 3060 3061 3060 3061 3062 3061 3061 3063 3065 3064 3063 3061 3063 3065 3066 3067 3068 3069 3070 3071
3025 3024 3024 3023 3022 3022 3021 3021 3021 3021 3021 3021 3021 3021 3021 3021 3021 3022 3022 3022 3023 3023 3024 3024 3025 3025 3026 3027 3027 3028 3028 3029 3030 3030 3031 3031 3032 3033 3034 3035 3035 3036 3037 3038 3039 3040 3041 3042 3043 3043 3043 3045 3046 3047 3048 3049 3049 3051 3051 3050 3051 3051 3050 3053 3054 3053 3055 3056 3058 3059 3058 3059 3059 3059 3061 3062 3062 3061 3058 3055 3057 3061 3064 3065 3066 3067 3068 3068
3023 3022 3022 3021 3020 3020 3019 3019 3019 3019 3019 3019 3019 3019 3019 3020 3020 3021 3021 3021 3022 3022 3022 3023 3023 3024 3024 3025 3026 3026 3027 3028 3028 3029 3030 3030 3031 3032 3032 3033 3034 3035 3035 3036 3038 3038 3039 3040 3041 3042 3042 3044 3045 3046 3048 3048 3048 3049 3050 3050 3050 3050 3050 3051 3051 3051 3053 3054 3055 3056 3057 3057 3055 3056 3059 3059 3059 3057 3054 3053 3055 3059 3061 3062 3063 3064 3065 3066
3021 3021 3020 3019 3018 3018 3017 3016 3016 3017 3017 3017 3017 3017 3018 3018 3019 3019 3020 3020 3020 3021 3021 3022 3022 3022 3023 3024 3024 3025 3026 3026 3027 3027 3028 3029 3029 3030 3031 3032 3032 3033 3034 3035 3036 3037 3038 3039 3039 3040 3041 3042 3044 3046 3046 3047 3047 3048 3048 3049 3050 3050 3050 3050 3049 3050 3051 3052 3052 3053 3055 3055 3053 3055 3056 3056 3055 3053 3053 3053 3055 3056 3058 3059 3060 3061 3062 3063
3020 3019 3018 3017 3016 3016 3015 3014 3014 3014 3014 3015 3015 3015 3016 3017 3017 3018 3018 3019 3019 3020 3020 3020 3021 3021 3021 3022 3023 3023 3024 3025 3025 3026 3027 3027 3028 3029 3029 3030 3031 3032 3033 3033 3034 3035 3036 3037 3038 3039 3040 3040 3042 3043 3044 3045 3046 3047 3047 3047 3048 3049 3049 3049 3048 3047 3049 3050 3050 3051 3052 3052 3051 3053 3054 3053 3052 3052 3053 3053 3053 3054 3055 3056 3056 3057 3059 3060
3019 3017 3016 3015 3014 3014 3013 3012 3012 3011 3011 3012 3013 3014 3014 3015 3015 3016 3017 3017 3018 3018 3019 3019 3019 3020 3020 3021 3022 3022 3023 3023 3024 3025 3025 3026 3027 3027 3028 3029 3030 3030 3031 3032 3033 3033 3035 3035 3036 3036 3037 3038 3040 3041 3042 3044 3046 3046 3046 3046 3047 3047 3048 3048 3046 3046 3047 3048 3049 3050 3051 3050 3049 3051 3052 3051 3051 3051 3051 3051 3051 3051 3052 3052 3053 3054 3056 3057
3017 3016 3015 3013 3012 3012 3011 3011 3010 3010 3009 3010 3011 3012 3012 3013 3013 3014 3015 3016 3016 3017 3017 3018 3018 3019 3019 3020 3021 3021 3022 3022 3023 3023 3024 3025 3025 3026 3027 3028 3028 3029 3030 3031 3031 3032 3033 3034 3034 3034 3036 3038 3039 3040 3041 3043 3044 3044 3044 3044 3045 3046 3046 3046 3045 3045 3047 3047 3048 3048 3050 3049 3046 3047 3050 3049 3049 3050 3049 3049 3049 3049 3049 3050 3051 3051 3053 3054
3016 3015 3013 3012 3011 3011 3010 3009 3009 3008 3008 3009 3009 3010 3011 3012 3012 3013 3014 3014 3015 3015 3016 3017 3017 3018 3019 3019 3020 3020 3021 3021 3022 3023 3023 3024 3024 3025 3026 3026 3027 3028 3029 3030 3030 3031 3032 3032 3032 3034 3036 3037 3039 3039 3040 3041 3042 3042 3043 3042 3043 3044 3044 3044 3044 3045 3046 3046 3047 3048 3049 3048 3044 3044 3046 3047 3047 3047 3047 3047 3047 3048 3048 3048 3049 3049 3050 3051
3015 3014 3012 3011 3010 3010 3009 3009 3008 3008 3008 3008 3009 3010 3010 3011 3011 3012 3013 3013 3014 3014 3015 3016 3016 3017 3018 3018 3019 3019 3020 3020 3021 3022 3022 3023 3023 3024 3025 3025 3027 3028 3029 3030 3030 3031 3031 3031 3032 3034 3035 3036 3037 3038 3039 3039 3040 3041 3041 3042 3041 3042 3043 3043 3043 3044 3045 3045 3046 3047 3048 3046 3042 3041 3043 3044 3044 3045 3045 3045 3045 3045 3046 3046 3047 3047 3048 3049
3014 3013 3011 3010 3010 3009 3009 3008 3008 3008 3007 3008 3008 3009 3010 3010 3011 3012 3012 3013 3013 3014 3014 3015 3016 3016 3017 3018 3018 3018 3018 3019 3019 3020 3021 3021 3022 3023 3024 3025 3026 3027 3028 3029 3029 3030 3031 3031 3031 3032 3033 3034 3035 3036 3037 3037 3038 3039 3040 3041 3040 3041 3043 3042 3041 3042 3043 3043 3044 3045 3045 3043 3040 3039 3040 3041 3042 3043 3043 3043 3042 3043 3043 3044 3044 3045 3046 3047
3013 3012 3011 3010 3010 3009 3009 3009 3008 3008 3008 3008 3008 3009 3009 3010 3011 3011 3012 3012 3013 3013 3014 3014 3015 3016 3016 3017 3017 3017 3018 3018 3018 3019 3019 3020 3021 3022 3023 3023 3025 3026 3027 3028 3028 3030 3030 3030 3030 3030 3031 3032 3034 3034 3035 3036 3036 3037 3038 3039 3039 3041 3041 3040 3040 3040 3040 3041 3041 3043 3043 3039 3036 3036 3037 3039 3040 3040 3040 3040 3039 3040 3041 3041 3042 3043 3044 3045
3012 3011 3010 3010 3010 3010 3009 3009 3008 3008 3008 3008 3008 3009 3009 3010 3010 3011 3012 3012 3013 3013 3014 3014 3015 3015 3016 3016 3016 3017 3017 3017 3018 3018 3018 3019 3020 3020 3021 3022 3023 3025 3026 3027 3027 3028 3029 3028 3028 3029 3030 3031 3032 3033 3034 3035 3035 3036 3037 3037 3037 3038 3039 3039 3038 3038 3039 3039 3039 3042 3041 3036 3033 3035 3035 3036 3037 3036 3036 3037 3037 3037 3038 3039 3040 3040 3041 3042
3011 3011 3011 3010 3010 3010 3009 3008 3008 3008 3008 3008 3008 3009 3009 3010 3010 3011 3012 3013 3013 3013 3014 3014 3015 3015 3015 3016 3016 3016 3016 3016 3017 3017 3018 3018 3019 3019 3020 3021 3022 3024 3025 3026 3026 3027 3027 3026 3027 3028 3029 3030 3031 3032 3033 3033 3033 3035 3035 3035 3034 3035 3037 3037 3036 3037 3037 3037 3037 3040 3039 3034 3031 3032 3032 3032 3033 3032 3032 3033 3034 3035 3035 3036 3037 3037 3038 3039
3011 3011 3011 3010 3010 3010 3009 3008 3008 3008 3008 3008 3009 3009 3009 3010 3010 3011 3012 3013 3013 3013 3013 3014 3014 3014 3015 3015 3015 3015 3016 3016 3016 3017 3017 3018 3018 3019 3019 3020 3021 3022 3023 3024 3025 3025 3024 3024 3025 3026 3027 3028 3029 3030 3031 3031 3032 3033 3032 3033 3033 3033 3035 3035 3035 3035 3035 3036 3036 3036 3037 3034 3030 3029 3029 3029 3030 3029 3029 3030 3031 3032 3032 3033 3034 3034 3035 3035
3011 3011 3010 3010 3010 3009 3008 3008 3008 3008 3008 3008 3009 3009 3010 3010 3011 3011 3012 3013 3013 3012 3012 3013 3013 3014 3014 3014 3014 3015 3015 3015 3016 3016 3016 3017 3018 3018 3019 3019 3020 3021 3022 3023 3024 3023 3023 3023 3024 3025 3026 3026 3026 3027 3028 3029 3030 3030 3030 3031 3032 3032 3033 3033 3034 3034 3035 3035 3033 3032 3035 3034 3028 3026 3028 3028 3027 3027 3027 3027 3028 3029 3029 3030 3031 3031 3032 3032
3010 3010 3010 3009 3009 3009 3008 3008 3008 3008 3008 3008 3009 3009 3009 3010 3011 3011 3012 3013 3012 3012 3012 3012 3013 3013 3013 3014 3014 3014 3014 3015 3015 3016 3016 3017 3017 3017 3018 3019 3019 3020 3021 3022 3022 3022 3022 3023 3023 3024 3025 3024 3024 3025 3027 3028 3028 3028 3028 3029 3030 3031 3031 3033 3033 3033 3034 3033 3029 3028 3032 3031 3026 3024 3025 3025 3024 3024 3023 3023 3025 3026 3027 3028 3028 3029 3029 3029
3010 3009 3009 3009 3009 3008 3008 3007 3007 3007 3008 3008 3008 3009 3009 3010 3010 3012 3012 3011 3011 3011 3011 3011 3012 3012 3013 3013 3013 3014 3014 3015 3015 3015 3016 3016 3017 3017 3017 3018 3019 3019 3020 3021 3021 3021 3022 3022 3023 3023 3023 3023 3024 3024 3025 3026 3026 3027 3027 3028 3029 3030 3030 3031 3031 3032 3034 3029 3023 3025 3029 3030 3027 3022 3021 3022 3021 3020 3020 3020 3022 3024 3025 3025 3026 3026 3027 3027
3009 3009 3009 3008 3008 3007 3007 3007 3007 3007 3007 3007 3008 3008 3009 3009 3010 3011 3010 3010 3010 3010 3010 3011 3011 3012 3012 3012 3013 3013 3014 3014 3014 3015 3015 3016 3016 3017 3017 3018 3018 3019 3019 3020 3020 3021 3021 3021 3022 3022 3022 3022 3023 3024 3024 3025 3026 3026 3026 3027 3028 3028 3029 3030 3029 3031 3031 3024 3019 3023 3027 3029 3025 3020 3018 3018 3018 3018 3018 3018 3020 3022 3023 3023 3023 3024 3024 3024
3008 3008 3008 3008 3007 3007 3006 3006 3006 3006 3007 3007 3007 3008 3008 3009 3009 3009 3008 3009 3010 3009 3009 3010 3011 3011 3012 3012 3012 3013 3013 3014 3014 3014 3015 3015 3015 3016 3016 3017 3017 3018 3019 3019 3020 3020 3020 3020 3020 3020 3021 3021 3022 3023 3024 3024 3024 3025 3025 3026 3027 3027 3028 3029 3028 3028 3026 3020 3018 3021 3023 3024 3021 3017 3016 3015 3016 3016 3016 3016 3018 3020 3021 3021 3020 3021 3021 3021
3008 3008 3008 3007 3007 3006 3006 3006 3006 3006 3006 3006 3006 3007 3007 3008 3008 3007 3007 3008 3008 3008 3009 3009 3010 3010 3011 3011 3012 3012 3013 3013 3013 3013 3014 3014 3015 3015 3016 3016 3017 3017 3018 3018 3019 3019 3019 3019 3019 3019 3019 3020 3020 3021 3022 3022 3022 3024 3024 3025 3026 3026 3027 3027 3024 3024 3022 3019 3018 3020 3022 3021 3017 3015 3013 3013 3014 3015 3015 3016 3016 3017 3018 3017 3017 3018 3018 3018
3007 3007 3007 3006 3006 3005 3005 3005 3005 3005 3005 3005 3005 3006 3006 3007 3006 3006 3007 3007 3007 3008 3008 3009 3009 3010 3010 3011 3011 3011 3012 3012 3012 3012 3013 3013 3014 3014 3015 3015 3016 3017 3017 3017 3018 3018 3018 3018 3018 3018 3018 3019 3019 3020 3021 3021 3022 3023 3023 3024 3024 3024 3025 3023 3020 3021 3021 3018 3017 3019 3020 3017 3014 3013 3012 3012 3013 3014 3014 3014 3014 3014 3015 3015 3015 3015 3015 3015
3007 3006 3006 3005 3005 3004 3004 3004 3004 3004 3004 3004 3005 3005 3005 3005 3005 3005 3006 3006 3007 3007 3008 3008 3009 3009 3010 3010 3010 3010 3011 3011 3011 3011 3012 3012 3013 3013 3014 3014 3015 3015 3016 3016 3017 3017 3017 3017 3017 3018 3018 3019 3019 3019 3020 3020 3021 3022 3022 3023 3023 3022 3023 3022 3019 3019 3020 3019 3019 3018 3016 3013 3012 3012 3012 3011 3012 3011 3012 3011 3011 3012 3012 3012 3013 3013 3013 3013
3006 3006 3005 3005 3004 3004 3004 3003 3003 3003 3003 3003 3004 3004 3004 3004 3004 3004 3005 3006 3006 3007 3007 3008 3008 3008 3009 3009 3009 3009 3010 3010 3010 3011 3011 3011 3012 3012 3013 3013 3014 3014 3015 3015 3016 3016 3016 3017 3017 3017 3017 3018 3018 3019 3019 3020 3020 3020 3020 3021 3021 3021 3022 3021 3019 3018 3019 3020 3017 3015 3013 3011 3011 3011 3010 3010 3010 3009 3009 3009 3009 3009 3009 3010 3010 3010 3011 3011
3005 3005 3004 3004 3003 3003 3003 3003 3003 3003 3003 3003 3003 3003 3003 3003 3004 3004 3004 3005 3005 3006 3006 3007 3007 3007 3007 3007 3008 3008 3009 3009 3010 3010 3010 3011 3011 3011 3012 3012 3013 3013 3014 3014 3015 3015 3016 3016 3016 3016 3016 3017 3018 3018 3018 3018 3018 3019 3020 3019 3020 3021 3021 3021 3021 3019 3019 3018 3013 3010 3010 3010 3010 3010 3008 3008 3007 3007 3006 3006 3006 3006 3007 3007 3007 3007 3008 3008
3004 3004 3004 3003 3003 3002 3002 3002 3002 3002 3002 3002 3002 3002 3002 3002 3003 3003 3004 3004 3004 3005 3005 3006 3006 3006 3006 3006 3007 3007 3008 3008 3009 3009 3009 3010 3010 3011 3011 3012 3012 3013 3013 3013 3014 3014 3015 3015 3015 3015 3015 3016 3016 3016 3016 3017 3017 3018 3018 3018 3019 3020 3020 3020 3021 3019 3018 3016 3010 3007 3008 3008 3008 3008 3007 3005 3005 3004 3003 3003 3004 3003 3004 3004 3005 3005 3006 3006
3004 3003 3003 3003 3002 3002 3002 3001 3001 3001 3001 3001 3001 3001 3001 3001 3002 3002 3003 3003 3003 3004 3004 3004 3004 3005 3005 3005 3006 3006 3007 3007 3008 3008 3008 3009 3010 3010 3010 3011 3011 3012 3012 3012 3013 3013 3014 3015 3015 3014 3015 3015 3015 3015 3015 3015 3016 3017 3017 3017 3018 3019 3019 3019 3018 3017 3017 3015 3011 3007 3006 3007 3007 3006 3005 3004 3003 3003 3002 3002 3002 3003 3003 3004 3004 3004 3005 3005
3003 3003 3002 3002 3002 3001 3001 3001 3000 3000 3000 3001 3001 3001 3001 3001 3001 3001 3002 3002 3002 3002 3002 3003 3003 3004 3004 3004 3005 3005 3006 3006 3007 3007 3008 3008 3008 3009 3009 3010 3010 3010 3011 3011 3012 3012 3013 3014 3014 3013 3013 3013 3014 3014 3014 3014 3015 3015 3015 3016 3016 3017 3018 3018 3017 3016 3016 3015 3012 3009 3006 3005 3006 3005 3005 3004 3002 3002 3002 3002 3003 3003 3003 3004 3004 3003 3004 3004
3003 3002 3002 3001 3001 3001 3000 3000 3000 3000 3000 3000 3000 3000 3000 3000 3000 3000 3001 3001 3001 3002 3002 3002 3002 3002 3003 3003 3004 3004 3005 3005 3005 3006 3006 3006 3007 3008 3008 3009 3009 3009 3010 3010 3010 3011 3012 3012 3012 3013 3013 3012 3013 3014 3013 3014 3014 3014 3015 3015 3015 3016 3017 3018 3017 3014 3015 3015 3013 3012 3008 3005 3005 3005 3004 3003 3002 3002 3002 3002 3003 3003 3002 3002 3002 3002 3003 3003
3002 3002 3001 3001 3000 3000 3000 2999 2999 3000 2999 2999 2999 2999 2999 2999 2999 2999 3000 3000 3000 3001 3001 3001 3001 3001 3002 3002 3002 3003 3003 3004 3004 3004 3005 3005 3006 3007 3008 3008 3008 3008 3008 3009 3009 3010 3011 3011 3011 3012 3012 3012 3013 3013 3012 3012 3012 3012 3013 3013 3014 3015 3017 3018 3017 3014 3014 3014 3013 3014 3011 3005 3003 3004 3003 3003 3003 3001 3001 3002 3002 3001 3001 3001 3001 3001 3001 3001
3001 3001 3000 3000 2999 2999 2999 2999 2999 2999 2999 2998 2998 2998 2998 2998 2998 2999 2999 2999 2999 3000 3000 3000 3000 3000 3001 3001 3001 3002 3002 3003 3003 3003 3004 3005 3005 3006 3007 3007 3007 3008 3008 3008 3009 3009 3010 3010 3011 3011 3011 3011 3012 3012 3011 3011 3011 3011 3012 3012 3013 3014 3016 3016 3016 3015 3015 3012 3012 3014 3010 3003 3002 3003 3003 3003 3003 3002 3001 3001 3000 3000 3000 3000 3000 3000 3000 3000
3000 3000 2999 2999 2999 2998 2998 2998 2998 2998 2998 2998 2998 2997 2997 2998 2998 2998 2998 2998 2998 2999 2999 2999 2999 2999 3000 3000 3000 3001 3001 3002 3002 3003 3003 3004 3005 3005 3006 3006 3006 3007 3007 3007 3008 3008 3009 3009 3009 3010 3011 3011 3011 3011 3010 3010 3010 3011 3011 3012 3012 3013 3015 3015 3015 3016 3014 3010 3011 3013 3007 3001 3001 3003 3002 3002 3001 3000 2999 2999 2999 2999 2999 2999 2999 2999 2999 2999
2999 2999 2998 2998 2998 2998 2997 2997 2997 2997 2997 2997 2997 2997 2997 2997 2997 2997 2997 2997 2998 2998 2998 2998 2999 2999 2999 2999 3000 3000 3000 3001 3001 3002 3002 3003 3004 3004 3005 3005 3006 3006 3006 3006 3007 3007 3007 3008 3008 3009 3009 3008 3008 3009 3010 3010 3010 3011 3011 3011 3011 3012 3013 3013 3014 3015 3013 3008 3008 3007 3003 3001 3001 3001 3001 3000 2999 2998 2997 2997 2997 2997 2997 2997 2997 2997 2997 2996
2999 2998 2998 2997 2997 2997 2997 2997 2997 2997 2996 2996 2996 2996 2996 2996 2996 2997 2997 2997 2997 2997 2997 2998 2998 2998 2998 2999 2999 2999 3000 3000 3000 3001 3002 3002 3003 3004 3004 3005 3005 3005 3005 3005 3006 3006 3006 3006 3007 3007 3007 3007 3007 3008 3009 3008 3009 3009 3009 3009 3010 3010 3010 3011 3011 3011 3010 3007 3004 3002 3002 3001 3000 2999 2999 2998 2997 2997 2995 2995 2996 2995 2995 2995 2996 2995 2995 2995
2998 2997 2997 2997 2996 2996 2996 2996 2996 2996 2996 2996 2996 2996 2996 2996 2996 2996 2996 2996 2997 2997 2997 2997 2998 2998 2998 2998 2999 2999 2999 3000 3000 3000 3001 3002 3002 3003 3003 3004 3004 3004 3005 3005 3005 3005 3005 3006 3006 3006 3007 3007 3007 3007 3007 3007 3007 3007 3007 3007 3008 3008 3008 3008 3008 3008 3008 3006 3000 2998 3001 3000 2998 2998 2998 2997 2996 2995 2994 2993 2993 2993 2993 2992 2993 2993 2993 2992
2998 2997 2996 2996 2996 2995 2995 2995 2995 2995 2995 2995 2995 2995 2995 2995 2995 2996 2996 2996 2996 2997 2997 2997 2997 2997 2998 2998 2998 2998 2999 2999 3000 3000 3001 3001 3002 3002 3003 3003 3003 3003 3004 3004 3004 3004 3004 3005 3005 3005 3006 3006 3006 3006 3006 3006 3005 3005 3005 3005 3005 3006 3005 3005 3005 3005 3006 3003 2997 2996 2998 2996 2995 2998 2997 2995 2995 2993 2992 2991 2989 2988 2988 2989 2989 2990 2989 2989
2997 2996 2996 2995 2995 2995 2995 2995 2995 2995 2995 2995 2995 2995 2995 2995 2995 2995 2996 2996 2996 2996 2996 2997 2997 2997 2997 2998 2998 2998 2998 2999 2999 3000 3000 3000 3001 3001 3002 3002 3002 3003 3003 3003 3003 3004 3004 3004 3004 3004 3004 3004 3005 3005 3004 3004 3003 3002 3002 3002 3002 3002 3002 3002 3001 3002 3002 2998 2995 2995 2994 2991 2993 2995 2993 2992 2991 2990 2990 2990 2987 2985 2984 2985 2986 2986 2985 2985
2996 2996 2995 2995 2994 2994 2994 2994 2994 2994 2994 2994 2994 2994 2995 2995 2995 2995 2995 2995 2996 2996 2996 2996 2996 2997 2997 2997 2998 2998 2998 2999 2999 2999 3000 3000 3000 3001 3001 3002 3002 3002 3002 3002 3003 3003 3003 3003 3003 3003 3003 3003 3003 3003 3003 3002 3001 2999 2998 2999 2999 2999 2999 2999 2998 2998 2997 2994 2994 2994 2990 2988 2990 2991 2989 2988 2987 2987 2988 2988 2986 2983 2981 2982 2983 2982 2981 2981
2995 2995 2994 2994 2994 2993 2993 2994 2994 2994 2994 2994 2994 2994 2994 2994 2994 2995 2995 2995 2995 2996 2996 2996 2996 2997 2997 2997 2998 2998 2998 2998 2999 2999 2999 3000 3000 3000 3001 3001 3001 3001 3001 3002 3002 3002 3002 3002 3002 3002 3001 3001 3001 3001 3001 3000 2998 2996 2995 2995 2996 2996 2995 2995 2995 2995 2994 2992 2992 2991 2987 2987 2988 2988 2986 2985 2984 2984 2985 2984 2983 2981 2979 2978 2979 2979 2978 2977
2994 2994 2993 2993 2993 2993 2993 2993 2993 2993 2993 2993 2993 2993 2993 2994 2994 2994 2994 2995 2995 2995 2996 2996 2996 2996 2997 2997 2997 2998 2998 2998 2998 2999 2999 2999 3000 3000 3000 3000 3001 3001 3001 3001 3001 3001 3001 3001 3001 3001 3000 3000 2999 2999 2999 2997 2995 2993 2992 2992 2993 2993 2993 2992 2992 2992 2991 2990 2989 2987 2985 2986 2987 2985 2983 2982 2981 2981 2981 2980 2980 2979 2976 2975 2975 2975 2974 2973